History for Miami, FL

Wednesday, December 12, 2012 — View Current Conditions

Jump to Data:

Date:
Airport Code:
Recently Viewed Airport Codes: KMIA
Daily Summary
  Actual Average Record
Temperature
Mean Temperature 78°F 71°F  
Max Temperature 82°F 78°F 87°F (1986)
Min Temperature 74°F 64°F 30°F (1934)
Degree Days
Heating Degree Days 0 1  
Month to date heating degree days 0 8  
Since 1 July heating degree days 1 11  
Cooling Degree Days 13 7  
Month to date cooling degree days 131 89  
Year to date cooling degree days 4571 4461  
Growing Degree Days 28 (Base 50)    
Moisture
Dew Point 71°F    
Average Humidity 80    
Maximum Humidity 94    
Minimum Humidity 65    
Precipitation
Precipitation 0.00 in 0.07 in 0.51 in (1966)
Month to date precipitation 0.30 0.83  
Year to date precipitation 86.73 60.69  
Snow
Snow 0.00 in in in ()
Month to date snowfall 0.0  
Since 1 July snowfall 0.0  
Snow Depth 0.00 in    
Sea Level Pressure
Sea Level Pressure 30.07 in    
Wind
Wind Speed 7 mph (SSE)    
Max Wind Speed 18 mph    
Max Gust Speed 33 mph    
Visibility 10 miles    
Events      
T = Trace of Precipitation, MM = Missing Value Source: NWS Daily Summary

Show full METARS

(help) - Comma Delimited File

Hourly Observations

Time(EST) Temperature Dew Point Humidity Sea Level Pressure Visibility Wind Direction Wind Speed Gust Speed Precipitation Events Conditions
12:53 AM 75.9°F 73.0°F 91% 30.05 in 10.0 miles SE 4.6 mph - N/A   Overcast
1:53 AM 75.9°F 73.0°F 91% 30.05 in 10.0 miles SE 4.6 mph - N/A   Mostly Cloudy
2:53 AM 77.0°F 73.0°F 88% 30.04 in 8.0 miles SSE 4.6 mph - N/A   Overcast
3:53 AM 77.0°F 72.0°F 84% 30.05 in 8.0 miles SSE 6.9 mph - N/A   Overcast
4:53 AM 75.9°F 72.0°F 87% 30.04 in 9.0 miles SE 10.4 mph - N/A   Overcast
5:53 AM 75.9°F 72.0°F 87% 30.05 in 10.0 miles SE 6.9 mph - N/A   Overcast
6:53 AM 75.9°F 72.0°F 87% 30.07 in 10.0 miles SE 6.9 mph - N/A   Overcast
7:53 AM 77.0°F 72.0°F 84% 30.09 in 10.0 miles SSE 6.9 mph - N/A   Overcast
8:53 AM 78.1°F 72.0°F 81% 30.11 in 10.0 miles Variable 6.9 mph - N/A   Overcast
9:53 AM 79.0°F 71.1°F 77% 30.11 in 10.0 miles SSE 11.5 mph - N/A   Overcast
10:53 AM 79.0°F 71.1°F 77% 30.09 in 10.0 miles SSE 11.5 mph 21.9 mph N/A   Overcast
11:53 AM 81.0°F 71.1°F 72% 30.09 in 10.0 miles SSE 9.2 mph 21.9 mph N/A   Mostly Cloudy
12:53 PM 81.0°F 70.0°F 69% 30.06 in 10.0 miles SSE 10.4 mph 19.6 mph N/A   Mostly Cloudy
1:53 PM 82.0°F 69.1°F 65% 30.04 in 10.0 miles South 11.5 mph 19.6 mph N/A   Mostly Cloudy
2:53 PM 80.1°F 70.0°F 71% 30.03 in 10.0 miles SE 11.5 mph 18.4 mph N/A   Mostly Cloudy
3:53 PM 80.1°F 70.0°F 71% 30.04 in 10.0 miles SSE 9.2 mph 20.7 mph N/A   Overcast
4:53 PM 78.1°F 71.1°F 79% 30.06 in 10.0 miles South 5.8 mph - N/A   Overcast
5:53 PM 78.1°F 71.1°F 79% 30.07 in 10.0 miles Calm Calm - N/A   Mostly Cloudy
6:53 PM 78.1°F 70.0°F 76% 30.08 in 10.0 miles Variable 5.8 mph - N/A   Overcast
7:53 PM 77.0°F 70.0°F 79% 30.09 in 10.0 miles Variable 4.6 mph - N/A   Mostly Cloudy
8:53 PM 75.9°F 70.0°F 82% 30.09 in 10.0 miles Calm Calm - N/A   Mostly Cloudy
9:53 PM 75.0°F 71.1°F 87% 30.09 in 10.0 miles Calm Calm - N/A   Scattered Clouds
10:53 PM 73.9°F 70.0°F 87% 30.09 in 10.0 miles SSE 3.5 mph - N/A   Scattered Clouds
11:53 PM 73.9°F 71.1°F 91% 30.07 in 10.0 miles South 3.5 mph - N/A   Scattered Clouds